User: anonymous   Login
Location: Montr�al
(45.5000°N, 73.5830°W)
Time: 18:30:55
(UTC-04:00)
Language:

Cosmos 2369 - Orbit

View from above orbital plane
View from above orbital plane
View from above satellite
View from above satellite

Ground track
Ground track

The orbit data is extracted from the following two-line orbital elements,

1 26069U 00006A   17142.95570797 -.00000313 +00000-0 -14099-3 0  9998
2 26069 070.9962 051.9259 0014065 268.8934 091.0576 14.13350161155908
Epoch (UTC): 22 May 2017 22:56:13
Eccentricity: 0.0014065
inclination: 70.9962°
perigee height: 838 km
apogee height: 858 km
right ascension of ascending node: 51.9259°
argument of perigee: 268.8934°
revolutions per day: 14.13350161
mean anomaly at epoch: 91.0576°
orbit number at epoch: 15590

The dashed part of the orbit path shows where the satellite is in the earth's shadow,  

DLR